Hagerstown, MD

11:42 PM EST on November 21, 2019 (GMT -0500)
Hagerstown Regional-Henson

Weather History for KHGR - September, 2019

Change the Weather History Date:

Sunday, September 1, 2019

  Actual Average Record
Temperature  
Mean Temperature 71 °F 71 °F  
Max Temperature 76 °F 80 °F 96 °F (2010)
Min Temperature 66 °F 61 °F 54 °F (1999)
Degree Days  
Heating Degree Days 0 0  
Month to date heating degree days 0 0  
Since 1 July heating degree days 0 5  
Cooling Degree Days 6 6  
Month to date cooling degree days 6 6  
Year to date cooling degree days 1215 874  
Growing Degree Days 20 (Base 50)    
Moisture  
Dew Point 60 °F    
Average Humidity 66    
Maximum Humidity 79    
Minimum Humidity 52    
Precipitation  
Precipitation T in 0.09 in 1.11 in (2003)
Month to date precipitation T 0.09  
Year to date precipitation 28.37 26.72  
Sea Level Pressure  
Sea Level Pressure 30.26 in    
Wind  
Wind Speed 7 mph (ESE)    
Max Wind Speed 16 mph    
Max Gust Speed 21 mph    
Visibility 10 miles    
Events      
T = Trace of Precipitation, MM = Missing Value Source: NWS Daily Summary

Daily Weather History Graph

Daily Weather History Graph

Search for Another Location

Airport or City:

Astronomy

Sep. 01, 2019 Rise Set
Actual Time 6:38 AM EDT 7:42 PM EDT
Civil Twilight 6:11 AM EDT 8:10 PM EDT
Nautical Twilight 5:38 AM EDT 8:42 PM EDT
Astronomical Twilight 5:03 AM EDT 9:17 PM EDT
Moon 9:06 AM EDT (9/1) 9:29 PM EDT (9/1)
Length of Visible Light 13h 58m
Length of Day
13h 03m
Waxing Crescent, 8% of the Moon is Illuminated
Sep 1
Waxing Crescent
Sep 5
First Quarter
Sep 14
Full
Sep 21
Last Quarter
Sep 28
New

Hourly Weather History & Observations

Time (EDT) Temp. Dew Point Humidity Pressure Visibility Wind Dir Wind Speed Gust Speed Precip Events Conditions
12:53 AM 66.9 °F 48.9 °F 52% 30.29 in 10.0 mi NNE 4.6 mph - N/A   Partly Cloudy
1:53 AM 66.0 °F 51.1 °F 59% 30.30 in 10.0 mi NW 5.8 mph - N/A   Overcast
2:53 AM 66.0 °F 52.0 °F 60% 30.30 in 10.0 mi North 6.9 mph - N/A   Overcast
3:53 AM 66.0 °F 52.0 °F 60% 30.29 in 10.0 mi North 6.9 mph - N/A   Overcast
4:53 AM 66.9 °F 53.1 °F 61% 30.29 in 10.0 mi NNE 5.8 mph - N/A   Mostly Cloudy
5:53 AM 68.0 °F 55.0 °F 63% 30.28 in 10.0 mi ENE 6.9 mph - N/A   Mostly Cloudy
6:53 AM 68.0 °F 55.9 °F 65% 30.29 in 10.0 mi NE 5.8 mph - N/A   Mostly Cloudy
7:53 AM 68.0 °F 55.9 °F 65% 30.31 in 10.0 mi ENE 8.1 mph - N/A   Overcast
8:53 AM 68.0 °F 55.9 °F 65% 30.32 in 10.0 mi ENE 5.8 mph - N/A   Overcast
9:53 AM 71.1 °F 57.0 °F 61% 30.32 in 10.0 mi ENE 6.9 mph - N/A   Overcast
10:53 AM 73.9 °F 57.0 °F 55% 30.32 in 10.0 mi ESE 5.8 mph - N/A   Overcast
11:53 AM 73.9 °F 57.9 °F 57% 30.32 in 10.0 mi East 4.6 mph - N/A   Overcast
12:53 PM 75.0 °F 60.1 °F 60% 30.31 in 10.0 mi South 9.2 mph - N/A   Overcast
1:53 PM 75.0 °F 61.0 °F 62% 30.30 in 10.0 mi South 6.9 mph - N/A   Overcast
2:13 PM 75.0 °F 61.0 °F 62% 30.27 in 10.0 mi South 6.9 mph - N/A   Overcast
2:53 PM 75.9 °F 62.1 °F 62% 30.27 in 10.0 mi Variable 4.6 mph - N/A   Overcast
3:48 PM 75.2 °F 62.6 °F 65% 30.24 in 10.0 mi SSE 5.8 mph - N/A   Overcast
3:53 PM 75.9 °F 63.0 °F 64% 30.26 in 10.0 mi SSE 5.8 mph - N/A   Overcast
4:05 PM 75.9 °F 63.0 °F 64% 30.24 in 10.0 mi South 4.6 mph - N/A   Overcast
4:15 PM 75.9 °F 63.0 °F 64% 30.23 in 10.0 mi SSE 5.8 mph - N/A   Overcast
4:26 PM 75.9 °F 64.0 °F 67% 30.23 in 10.0 mi South 4.6 mph - N/A   Overcast
4:53 PM 75.0 °F 64.0 °F 69% 30.25 in 10.0 mi South 4.6 mph - 0.00 in   Overcast
5:53 PM 75.0 °F 64.9 °F 71% 30.23 in 10.0 mi ESE 4.6 mph - 0.00 in   Overcast
6:00 PM 75.0 °F 64.9 °F 71% 30.21 in 10.0 mi East 4.6 mph - N/A   Overcast
6:53 PM 75.0 °F 64.9 °F 71% 30.22 in 10.0 mi ESE 3.5 mph - N/A   Mostly Cloudy
7:53 PM 73.9 °F 66.0 °F 76% 30.21 in 10.0 mi SE 3.5 mph - N/A   Overcast
8:53 PM 73.9 °F 66.0 °F 76% 30.21 in 10.0 mi SSE 4.6 mph - N/A   Overcast
9:53 PM 73.0 °F 64.9 °F 76% 30.19 in 10.0 mi SE 6.9 mph - N/A   Clear
10:53 PM 73.0 °F 64.9 °F 76% 30.18 in 10.0 mi SE 9.2 mph - N/A   Mostly Cloudy
11:53 PM 72.0 °F 64.9 °F 78% 30.17 in 10.0 mi SSE 11.5 mph - N/A   Scattered Clouds